Regional Weather Roundup
Issued by NWS State College, PA

Home | Current Version | Previous Version | Text Only | Print | Product List | Glossary On
Versions: 1 2 3 4 5 6 7 8 9 10 11 12 13 14 15 16 17 18 19 20 21 22 23 24 25 26 27 28 29 30 31 32 33 34 35 36 37 38 39 40 41 42 43 44 45 46 47 48 49 50
000
ASUS41 KCTP 071710
RWRCTP

REGIONAL WEATHER ROUNDUP
NATIONAL WEATHER SERVICE STATE COLLEGE PA
100 PM EDT TUE JUL 07 2015

Note: "fair" indicates few or no clouds below 12,000 feet with no
significant weather and/or obstructions to visibility.

* = STATION THAT DOES NOT REPORT PRECIPITATION /E.G. RAIN...SNOW...ETC/
    THUNDER OR FOG.

PAZ002>004-007>009-013>016-020>023-029>032-071800-
WESTERN PENNSYLVANIA

CITY           SKY/WX    TMP DP  RH WIND       PRES   REMARKS
ERIE           MOSUNNY   86  69  56 SW16G28   29.89F
MEADVILLE      PTSUNNY   81  67  62 S13G22    29.96F HAZE
FRANKLIN*      PTSUNNY   81  68  65 S15G22    30.00F
NEW CASTLE     PTSUNNY   85  73  67 S10G17    29.98F
BEAVER COUNTY  MOSUNNY   82  72  69 SW9G17    30.00F
BUTLER*        PTSUNNY   81  70  69 SW12G18   30.02S
PITTSBURGH INT PTSUNNY   82  68  62 SW15      30.00F
PITTSBURGH     PTSUNNY   82  66  58 SW8G20    30.01F
INDIANA*       PTSUNNY   81  68  65 SW16      30.07S
LATROBE        PTSUNNY   81  70  69 SW12G17   30.04F
WASHINGTON CO* NOT AVBL
$$

PAZ004>006-010>012-017>019-024>028-033>037-041-042-045-046-049>053-071800-
CENTRAL PENNSYLVANIA

CITY           SKY/WX    TMP DP  RH WIND       PRES   REMARKS
BRADFORD       MOSUNNY   78  62  57 S9G18     30.02F
DUBOIS         PTSUNNY   81  67  62 SW12      30.02F
CLEARFIELD     PTSUNNY   81  66  60 SW13      30.03F
JOHNSTOWN      MOSUNNY   79  61  53 SW15G24   30.08F
ALTOONA        MOSUNNY   78  68  71 S7        30.06F
STATE COLLEGE  MOSUNNY   81  70  69 SW9       30.03F
WILLIAMSPORT   MOSUNNY   82  69  64 W6        29.98F
SELINSGROVE    MOSUNNY   82  71  69 VRB5      30.01F
FT INDIANTOWN  MOSUNNY   82  71  70 SW8       30.01F
CAPITAL CITY   SUNNY     82  68  62 W9        30.02F
HARRISBURG     MOSUNNY   82  71  69 W7        30.01F
YORK           MOSUNNY   83  69  62 VRB5      30.03F
$$

PAZ038>040-043-044-047-048-054-055-060>062-067>071-071800-
EASTERN PENNSYLVANIA

CITY           SKY/WX    TMP DP  RH WIND       PRES   REMARKS
SCRANTON       CLOUDY    78  68  71 SW6       30.01F
MOUNT POCONO   LGT RAIN  71  66  84 SW6       30.06F
ALLENTOWN      MOSUNNY   84  72  65 SW7       30.00F
QUAKERTOWN*    MOSUNNY   82  72  69 SW7       30.02F
READING        PTSUNNY   85  71  63 W9        30.00F
LANCASTER      MOSUNNY   83  70  64 VRB7      30.01F
COATESVILLE    MOSUNNY   82  73  74 W5        30.04F
POTTSTOWN      PTSUNNY   82  71  69 VRB5      30.02F
BLUE BELL      MOSUNNY   86  72  62 SW5       30.01F
DOYLESTOWN     MOSUNNY   83  69  62 VRB5      30.00F
WILLOW GROVE   NOT AVBL
NORTH PHILA    PTSUNNY   86  68  54 SW7       30.01F
PHILADELPHIA   MOSUNNY   87  69  54 SW10      30.01F
$$



USA.gov is the U.S. government's official web portal to all federal, state and local government web resources and services.